Regional Weather Roundup
Issued by NWS Charleston, SC

Current Version | Previous Version | Graphics & Text | Print | Product List | Glossary On
Versions: 1 2 3 4 5 6 7 8 9 10 11 12 13 14 15 16 17 18 19 20 21 22 23 24 25 26 27 28 29 30 31 32 33 34 35 36 37 38 39 40 41 42 43 44 45 46 47 48 49 50
000
ASUS42 KCHS 280710
RWRCHS
REGIONAL WEATHER ROUNDUP
NATIONAL WEATHER SERVICE CHARLESTON SC
300 AM EDT THU AUG 28 2014

NOTE: "FAIR" INDICATES FEW OR NO CLOUDS BELOW 12,000 FEET WITH NO
SIGNIFICANT WEATHER AND/OR OBSTRUCTIONS TO VISIBILITY.

NOT ALL STATIONS ARE QUALITY CONTROLLED BY THE NATIONAL
WEATHER SERVICE. USE DATA WITH CAUTION...ESPECIALLY
DEWPOINT OBSERVATIONS.

SCZ027-030-031-034>040-042>050-280800-
...SOUTH CAROLINA...

CITY           SKY/WX    TMP DP  RH WIND       PRES   REMARKS
N CHARLESTON   CLEAR     72  68  87 CALM      29.99F
WATERFRONT PRK   N/A     75 N/A N/A SW5         N/A
FORT JOHNSON   NOT AVBL
MOUNT PLEASANT FAIR      70  68  94 CALM      29.99F
JOHNS ISLAND   SUNNY     70  68  94 CALM      30.00F
PINOPOLIS        N/A     75  64  69 SW5       29.92R
MONCKS CORNER    N/A     64  64 100 CALM      30.00S
SUMMERVILLE    FAIR      64  64 100 CALM      30.01S
BEAUFORT MCAS  CLEAR     71  66  84 W6        30.00F
BEAUFORT ARPT  FAIR      72  72 100 W3        29.99F
HILTON HEAD IS CLOUDY    70  68  94 CALM      30.01S
GEORGETOWN     NOT AVBL
WALTERBORO     SUNNY     64 N/A N/A CALM      30.01S
ORANGEBURG     CLEAR     63  60  90 CALM      30.01S
BARNWELL       FAIR      63  57  82 CALM      30.02F
AIKEN          FAIR      63  59  88 CALM      30.05S
MANNING        FAIR      63 N/A N/A CALM      30.00S
KINGSTREE      NOT AVBL
COLUMBIA       CLEAR     64  58  80 W6        30.00S
SUMTER         CLEAR     66  59  78 CALM      29.98F
FLORENCE       CLEAR     64  58  80 W6        29.98F
MYRTLE BEACH   CLEAR     72  63  73 CALM      29.98F
N MYRTLE BEACH NOT AVBL

$$

GAZ063-065-086>088-099>101-113>116-118-119-134-136>141-150-280800-
...GEORGIA...

CITY           SKY/WX    TMP DP  RH WIND       PRES   REMARKS
SAVANNAH ARPT  CLEAR     69  65  86 W3        30.01S
HUNTER AAF     CLEAR     67  66  96 W5        29.99S
FORT STEWART   CLEAR     66  62  89 CALM      30.00F
STATESBORO     NOT AVBL
SYLVANIA       SUNNY     65  64  98 CALM      30.02F
CLAXTON        NOT AVBL
THOMSON        CLEAR     61  61 100 CALM      30.06S
AUGUSTA-BUSH   CLEAR     60  58  92 S3        30.00F
AUGUSTA-DANIEL CLEAR     73  57  57 CALM      30.01F
SWAINSBORO     FAIR      64  63  94 CALM      30.03S
VIDALIA          N/A     68  64  88 CALM      30.02S
ALMA           CLEAR     64  62  93 CALM      30.01F FOG
WAYCROSS       CLEAR     68  67  96 CALM      30.02S
JESUP            N/A     64  63  94 CALM      30.02S
BRUNSWICK        N/A     68  64  88 CALM      30.02S
SAINT SIMONS   CLEAR     72  67  84 CALM      30.01S

$$

SCZ027-028-034-036>038-045-046-048>050-GAZ119-141-280800-
...LAKE AND SUPPLEMENTAL COASTAL OBSERVATIONS...

STATION/POSITION TIME  TEMP    WIND        PRES    WAVE   SWELL
                       AIR SEA DIR/SP/G            HT/PER HT/PER/DIR
                 (UTC) (F)     (DEG/KT/KT) (MB)    (FT/S) (FT/S/D)
UPR LAKE MARION  NOT AVBL
WINYAH BAY       0600   72     260/  3     1015.0S
LAKE MURRAY      0600   70        CALM     1015.6F
ACE BASIN NERRS  0600   71        CALM     1016.0S
FORT PULASKI     0700          310/  4/  4 1016.0F
SAPELO ISLAND    0600   70     130/  2     1016.0S

$$

ANZ835-935-AMZ111-154-330-350-352-354-374-450-454-472-280800-
...C-MAN AND BUOY OBSERVATIONS...

STATION/POSITION TIME  TEMP    WIND        PRES    WAVE   SWELL
                       AIR SEA DIR/SP/G            HT/PER HT/PER/DIR
                 (UTC) (F)     (DEG/KT/KT) (MB)    (FT/S) (FT/S/D)
FOLLY BEACH CMAN 0600   77     240/  4/  5 1016.4F
BUOY 41004       0700   80 82  270/  8/ 10 1015.0F   6/11   7/11
BUOY 41008       0700   80 84  140/  6/  8 1016.0F   4/10   3/ 80/10
5E ST. MARYS GA  0700      83                N/A     4/10   2/100/11
FRYING PAN BUOY  NOT AVBL
BUOY 41025       0700   76     300/ 14/ 17 1012.2F   7/ 9   7/ 90/ 9
CAPE LOOKOUT NC  0600   76     310/  3/  4 1013.7F
BUOY 41002       0555   80 81  310/  8/ 12 1014.5S   9/ 9   8/ 60/ 9
BUOY 41010       0700   82 83  150/  6/  8 1015.8F  10/10  10/ 50/10
BUOY 41012       NOT AVBL
ST AUGUSTINE FL  0700   79     260/  2/  3 1016.3F
CAPERS NEARSHORE 0600   80     250/  8/  8   N/A
FRIPP NEARSHORE  NOT AVBL


$$



USA.gov is the U.S. government's official web portal to all federal, state and local government web resources and services.